Location: Ocean City
(38.3360°N, 75.0850°W)
Time: 12:44:43
(UTC-05:00)

deb Explorer IX - Pass Details

Date: 18 November 2019
Orbit: 545 x 1105 km, 38.8° (Epoch: 05 December)

Event Time Altitude Azimuth Distance (km) Brightness Sun altitude
Exits shadow 04:31:36 86° 116° (ESE) 706 ? -26.0°
Drops below altitude 10° 04:36:11 10° 99° (E) 2,014 ? -25.1°
Sets 04:38:20 0° 100° (E) 2,857 ? -24.7°
